{"data":{"norad_id":63450,"intl_designator":"2025-069T","name":"STARLINK-33736","alt_names":[],"object_type":"PAYLOAD","status":"ACTIVE","operator":null,"country":"US","launch_date":"2025-04-04","launch_site_code":"AFWTR","launch_vehicle":null,"mission":null,"orbit_class":"UNKNOWN","rcs_meters":null,"size_class":null,"mass_kg":null,"dimensions":null,"purposes":["comms"],"wikipedia_slug":null,"has_3d_model":false,"image_url":null,"decayed_at":null,"tle_current":{"epoch":"2026-05-24T17:14:32.572320Z","epoch_age_seconds":96062,"freshness":"FRESH","line1":"1 63450U 25069T   26144.71843255  .00029588  00000+0  68626-3 0  9994","line2":"2 63450  53.1583 146.5866 0001281  92.7158 267.3995 15.42181458 65039","mean_motion":15.42181458,"eccentricity":0.0001281,"inclination_deg":53.1583,"raan_deg":146.5866,"arg_perigee_deg":92.7158,"mean_anomaly_deg":267.3995,"bstar":0.00068626,"rev_number":6503,"period_min":93.374226004992,"perigee_km":438.79904932105,"apogee_km":440.54577209207,"semimajor_km":6817.8094107066,"source":"CELESTRAK","updated_at":"2026-05-25T13:38:20.001575Z"}}}